Location: Buffign�court
(47.8126°N, 6.0176°E)
Time: 14:08:50
(UTC+00:00)

USA 215 - Visible Passes

Search period start: 22 October 2021 00:00
Search period end: 01 November 2021 00:00
Orbit: 1093 x 1114 km, 123.0° (Epoch: 17 October)

Date Brightness Start Highest point End Pass type
(mag) Time Alt. Az. Time Alt. Az. Time Alt. Az.
22 Oct 3.4 17:04:24 10° NE 17:10:57 79° NNW 17:17:30 10° WSW visible
22 Oct 4.0 18:50:01 24° NE 18:53:32 44° NNW 18:59:39 10° W visible
22 Oct 4.4 20:37:22 36° NNW 20:37:22 36° NNW 20:41:49 10° WNW visible
22 Oct 5.9 22:24:43 10° NW 22:24:43 10° NW 22:24:47 10° NW visible
23 Oct 3.8 18:05:34 14° NE 18:11:06 55° NNW 18:17:27 10° W visible
23 Oct 4.1 19:52:55 39° N 19:53:26 40° N 19:59:26 10° WNW visible
23 Oct 5.4 21:40:16 19° NW 21:40:16 19° NW 21:42:01 10° NW visible
24 Oct 3.4 17:21:57 10° NE 17:28:29 78° NNW 17:35:03 10° WSW visible
24 Oct 4.0 19:08:29 30° NE 19:11:05 44° NNW 19:17:11 10° W visible
24 Oct 4.7 20:55:50 30° NW 20:55:50 30° NW 20:59:23 10° WNW visible
25 Oct 3.7 18:24:04 20° NE 18:28:39 55° NNW 18:35:00 10° W visible
25 Oct 4.2 20:11:25 39° N 20:11:25 39° N 20:16:58 10° WNW visible
25 Oct 5.7 21:58:46 14° NW 21:58:46 14° NW 21:59:34 10° NW visible
26 Oct 3.4 17:39:39 11° NE 17:46:03 78° NNW 17:52:37 10° WSW visible
26 Oct 4.0 19:27:01 37° NNE 19:28:38 44° NNW 19:34:44 10° W visible
26 Oct 5.1 21:14:21 24° NW 21:14:21 24° NW 21:16:55 10° WNW visible
27 Oct 3.4 16:56:44 10° ENE 17:03:16 68° SE 17:09:47 10° SW visible
27 Oct 3.7 18:42:36 26° NE 18:46:12 55° NNW 18:52:32 10° W visible
27 Oct 4.4 20:29:57 36° NNW 20:29:57 36° NNW 20:34:31 10° WNW visible
28 Oct 3.3 17:58:12 16° NE 18:03:37 78° NNW 18:10:09 10° WSW visible
28 Oct 4.0 19:45:33 42° N 19:46:11 43° NNW 19:52:17 10° W visible
28 Oct 5.4 21:32:55 18° NW 21:32:55 18° NW 21:34:29 10° WNW visible
29 Oct 3.3 17:14:17 10° ENE 17:20:49 68° SE 17:27:21 10° SW visible
29 Oct 3.7 19:01:11 35° NE 19:03:45 55° NNW 19:10:05 10° W visible
29 Oct 4.8 20:48:32 29° NW 20:48:32 29° NW 20:52:04 10° WNW visible
30 Oct 3.3 18:16:49 23° NE 18:21:09 77° NNW 18:27:42 10° WSW visible
30 Oct 4.1 20:04:10 43° NNW 20:04:10 43° NNW 20:09:49 10° W visible
30 Oct 5.8 21:51:32 12° WNW 21:51:32 12° WNW 21:52:01 10° WNW visible
31 Oct 3.3 17:32:27 13° ENE 17:38:22 69° SE 17:44:54 10° SW visible
31 Oct 3.7 19:19:49 45° NNE 19:21:18 54° NNW 19:27:38 10° W visible
31 Oct 5.2 21:07:11 23° NW 21:07:11 23° NW 21:09:36 10° WNW visible
